Regional Weather Roundup
Issued by NWS Upton, NY

Current Version | Previous Version | Text Only | Print | Product List | Glossary On
Versions: 1 2 3 4 5 6 7 8 9 10 11 12 13 14 15 16 17 18 19 20 21 22 23 24 25 26 27 28 29 30 31 32 33 34 35 36 37 38 39 40 41 42 43 44 45 46 47 48 49 50
000 ASUS41 KOKX 262308 RWROKX REGIONAL WEATHER ROUNDUP NATIONAL WEATHER SERVICE NEW YORK NY 700 PM EDT MON SEP 26 2016 NOTE: "FAIR" INDICATES FEW OR NO CLOUDS BELOW 12,000 FEET WITH NO SIGNIFICANT WEATHER AND/OR OBSTRUCTIONS TO VISIBILITY. NYZ071-072-176-178-NJZ106-104-270000- NEW YORK CITY METRO AREA CITY SKY/WX TMP DP RH WIND PRES REMARKS Central Park CLOUDY 67 49 52 S8 30.08F LaGuardia APRT CLOUDY 69 49 48 S13 30.05F Kennedy INTL MOCLDY 68 49 50 S17 30.08S Newark/Liberty CLOUDY 69 49 48 S16 30.05S Bronx Bot Gard N/A 66 48 52 SE5 30.08R Wall St Helipt CLOUDY 70 55 60 S9 30.07F Teterboro CLOUDY 68 48 48 S10G21 30.04F $$ NYZ177-179-078>081-270000- LONG ISLAND NEW YORK CITY SKY/WX TMP DP RH WIND PRES REMARKS Farmingdale MOCLDY 66 49 54 S13 30.07F MacArthur/ISP MOCLDY 65 50 58 S9 30.07F Shirley CLEAR 64 50 60 S9 30.08F Riverhead NOT AVBL Westhampton PTCLDY 64 49 57 S10 30.10F Southampton N/A 64 54 68 S12 30.05F Bridgehampton N/A 59 52 77 CALM 29.94F East Hampton FAIR 62 48 61 S6 30.09S Montauk N/A 63 51 65 S6 30.10F $$ NYZ052-065-067-270000- HUDSON VALLEY CITY SKY/WX TMP DP RH WIND PRES REMARKS White Plains MOCLDY 65 49 56 S9 30.05F Newburgh MOCLDY 66 54 63 S12 30.05F Montgomery CLOUDY 68 52 56 S8 30.02S Poughkeepsie CLOUDY 67 50 54 S7 30.02S Albany CLOUDY 66 48 52 S12 29.98S $$ NJZ001-105-106-008-010-013-015-019>022-104-270000- NEW JERSEY CITY SKY/WX TMP DP RH WIND PRES REMARKS Newark/Liberty CLOUDY 69 49 48 S16 30.05S Teterboro CLOUDY 68 48 48 S10G21 30.04F Caldwell CLOUDY 69 49 48 S10 30.05S Morristown CLOUDY 68 50 52 SW7 30.04F Somerville CLOUDY 68 48 48 S8 30.03S Linden NOT AVBL Sussex CLOUDY 65 53 65 CALM 30.03F Abdover N/A 64 53 67 CALM 30.04F Trenton CLOUDY 68 49 50 S10 30.05S Millville NOT AVBL Atlantic City CLOUDY 69 57 65 SE9 30.06F Wrightstown CLOUDY 66 53 61 S3 30.04S Toms River CLOUDY 66 55 67 CALM 30.08S Belmar CLOUDY 67 53 61 S6 30.08S $$ PAZ047>061-062-071-270000- EASTERN PENNSYLVANIA CITY SKY/WX TMP DP RH WIND PRES REMARKS Philadelphia CLOUDY 69 53 56 S7 30.05S Allentown CLOUDY 68 49 50 S6 30.03F Scranton CLOUDY 63 53 70 SW7 30.01F $$ CTZ002-004>006-009-010-012-RIZ004-006-007-MAZ004-011-015-270000- SOUTHERN NEW ENGLAND IN CT CITY SKY/WX TMP DP RH WIND PRES REMARKS Bradley INTL CLOUDY 62 48 60 S14 30.05F Hartford CLEAR 63 50 62 S6 30.05F Danbury MOCLDY 63 50 62 S7 30.07S Wtrbury/Oxford MOCLDY 63 46 55 S9G16 30.09R Bridgeport MOCLDY 68 52 56 S16 30.06F Meriden PTCLDY 65 49 56 S8 30.06F New Haven MOCLDY 65 51 60 S16G24 30.07F Chester FAIR 61 50 67 S7 30.08F Groton CLOUDY 65 51 60 S13 30.08F Wilimantic CLOUDY 62 49 62 S6 30.08F IN RI CITY SKY/WX TMP DP RH WIND PRES REMARKS Providence PTCLDY 60 46 59 S10 30.10F Block Island PTCLDY 63 49 60 S10 30.11F Westerly PTCLDY 64 46 52 S9 30.10F IN MA CITY SKY/WX TMP DP RH WIND PRES REMARKS Boston MOCLDY 62 46 55 SW12 30.07F Worcester PTCLDY 58 44 60 S9 30.07F Westfield CLOUDY 62 48 60 S9 30.04F Provincetown CLEAR 59 47 64 SW14 30.11S Nantucket CLEAR 58 44 60 SW10 30.13F $$ ANZ330-335-338-340-345-350-353-355-270000- COASTAL MARINE OBSERVATIONS STATION/POSITION TIME SKY/WX TEMP WIND PRES VSBY WAVE AIR SEA DIR/SP/G HT/PER (UTC) (F) (DEG/KT/KT) (MB) (MI) (FT/S) NY HARB ENTRANCE 2150 68 71 170/ 14/ 17 1018.4 3/ 4 20S FIRE ISLAND 2150 66 69 170/ 12/ 14 1018.7 2/10 GREAT SOUTH BAY 2230 67 70 210/ 12/ 16 N/A 23 SSW MONTAUK P 2150 65 68 200/ 10/ 14 1020.1 2/10 15 E BARNEGAT LI 2200 70 N/A 3/ 9 HUDSON CANYON 2150 67 70 1019.5 2/ 8 KINGS POINT 2230 67 73 N/A EXECUTION ROCKS 2245 68 170/ 14/ 19 N/A CENTRAL LI SOUND 2230 66 72 180/ 16/ 17 N/A 2/ 3 EASTERN LI SOUND NOT AVBL ROBBINS REEF 2230 68 170/ 20/ 23 N/A $$ >>>>>>>>>>>>>>>>>>>>>>>>>>>> KEY <<<<<<<<<<<<<<<<<<<<<<<<<<< > < > SKY/WX - Sky Condition/Present Weather < > TMP - Temperature in Fahrenheit < > DP - Dew Point in Fahrenheit < > RH - Relative Humidity in Percent < > WIND - Direction (from) and Speed in MPH < > PRES - Mean Sea Level Pressure (inches of Hg) < > WCI - Wind Chill Index < > VSB - VISIBILITY IN MILES < > HX - HEAT INDEX < > TC - TEMPERATURE IN CELSIUS < > VRB - VARIABLE WIND DIRECTION < > < >>>>>>>>>>>>>>>>>>>>>>>>>>>> KEY <<<<<<<<<<<<<<<<<<<<<<<<<<<

USA.gov is the U.S. government's official web portal to all federal, state and local government web resources and services.